Location: Peebles
(55.6412°N, 3.1714°W)
Time: 14:04:29
(UTC+00:00)

RS-15 - Pass Details

Date: 29 November 2023
Orbit: 1893 x 2151 km, 64.8° (Epoch: 02 March)

Event Time Altitude Azimuth Distance (km) Brightness Sun altitude
Exits shadow 06:05:48 15° 312° (NW) 4,055 9.2 -16.9°
Maximum altitude 06:15:41 68° 234° (SW) 2,084 8.0 -15.5°
Drops below altitude 10° 06:26:32 10° 155° (SSE) 4,298 10.4 -14.1°
Sets 06:29:44 0° 153° (SSE) 5,278 11.0 -13.6°
